Walland, TN (37886)

2:42 AM EDT on August 31, 2015 (GMT -0400)
Jules Treehouse - Townsend | | Change Station
CLOSE
Current Station
Personal Weather Station
Location: Townsend, TN
Elevation: 1040 ft
Nearby Weather Stations

Elev 1040 ft 35.70 °N, 83.80 °W | Updated 1 second ago

Mostly Cloudy
Mostly Cloudy
66.4 °F
Feels Like 66.4 °F
N
0.0
Wind Variable Wind from East
Gusts 0.0 mph

Today
High -- | Low -- °F
--% Chance of Precip.
Yesterday
High -- | Low -- °F
Precip. -- in
7:06 AM 8:04 PM
Waning Gibbous, 97% visible
Pressure 30.07 in
Visibility 10.0 miles
Clouds Scattered Clouds 4000 ft
Mostly Cloudy 8000 ft
Mostly Cloudy 15000 ft
Dew Point 65 °F
Humidity 95%
Rainfall 0.00 in
Snow Depth Not available.
UV 0 out of 12
Pollen 8.00 out of 12
Air Quality Not available.
Flu Activity Not available.
METAR KTYS 310553Z 00000KT 10SM SCT040 BKN080 BKN150 21/18 A3010 RMK AO2 SLP181 T02060178 10217 20194 51006 $
Pressure 30.07 in
Visibility 10.0 miles
Clouds Scattered Clouds 4000 ft
Mostly Cloudy 8000 ft
Mostly Cloudy 15000 ft
Dew Point 65 °F
Humidity 95%
Rainfall 0.00 in
Snow Depth Not available.
UV 0 out of 12
Pollen 8.00 out of 12
Air Quality Not available.
Flu Activity Not available.
METAR KTYS 310553Z 00000KT 10SM SCT040 BKN080 BKN150 21/18 A3010 RMK AO2 SLP181 T02060178 10217 20194 51006 $

10-Day Weather Forecast

×

Almanac

Astronomy

Aug. 31, 2015 Rise Set
Actual Time
Civil Twilight
Nautical Twilight
Astronomical Twilight
Moon
Length of Visible Light
Length of Day
Tomorrow will be .
, % of the Moon is Illuminated

Today's Extremes

State Highs State Lows

Community

WunderPhotos

Upload Photos

1,851,217 photos uploaded!

WunderBlogs® & News

Nearby

Air Quality

  Air Quality AQ Index Pollutant
Not available.

Snow Depth

Station Depth Elevation

Earthquake Activity

City Distance Mag. Time & Date
Minimum magnitude displayed is 2.5.

Coastal Water Temperatures

Place Temperature

Stations

Nearby Weather Stations

Station Location Temp. Windchill Dew Point Humidity Wind Precip. Elev Updated Type